TimeEST,TemperatureF,Dew PointF,Humidity,Sea Level PressureIn,VisibilityMPH,Wind Direction,Wind SpeedMPH,Gust SpeedMPH,PrecipitationIn,Events,Conditions,WindDirDegrees,DateUTC
12:53 AM,21.0,16.0,81,30.19,10.0,East,4.6,-,N/A,,Clear,80,2013-02-10 05:53:00
1:53 AM,18.0,14.0,84,30.17,9.0,ENE,3.5,-,N/A,,Clear,70,2013-02-10 06:53:00
2:53 AM,19.0,14.0,81,30.17,9.0,East,3.5,-,N/A,,Clear,80,2013-02-10 07:53:00
3:53 AM,18.0,12.9,81,30.15,7.0,ENE,3.5,-,N/A,,Clear,70,2013-02-10 08:53:00
4:53 AM,12.9,9.0,84,30.13,6.0,East,4.6,-,N/A,,Clear,90,2013-02-10 09:53:00
5:53 AM,15.1,10.9,84,30.12,7.0,East,4.6,-,N/A,,Clear,80,2013-02-10 10:53:00
6:53 AM,26.1,18.0,71,30.11,10.0,East,3.5,-,N/A,,Mostly Cloudy,80,2013-02-10 11:53:00
7:53 AM,24.1,17.1,75,30.08,9.0,East,4.6,-,N/A,,Clear,80,2013-02-10 12:53:00
8:53 AM,26.1,18.0,71,30.06,10.0,ENE,3.5,-,N/A,,Mostly Cloudy,70,2013-02-10 13:53:00
9:44 AM,28.4,21.2,74,29.99,10.0,East,9.2,-,N/A,,Overcast,90,2013-02-10 14:44:00
9:53 AM,30.0,21.0,69,30.03,10.0,ESE,8.1,-,N/A,,Overcast,110,2013-02-10 14:53:00
10:53 AM,35.1,25.0,67,29.99,10.0,ESE,10.4,-,N/A,,Overcast,110,2013-02-10 15:53:00
11:53 AM,36.0,26.1,67,29.97,10.0,ESE,11.5,-,N/A,,Overcast,120,2013-02-10 16:53:00
12:53 PM,37.9,26.1,62,29.91,10.0,ESE,11.5,-,N/A,,Overcast,110,2013-02-10 17:53:00
1:53 PM,39.0,27.0,62,29.86,10.0,ESE,15.0,-,N/A,,Overcast,120,2013-02-10 18:53:00
2:53 PM,39.0,30.0,70,29.81,9.0,ESE,11.5,-,0.02,Rain,Light Rain,110,2013-02-10 19:53:00
3:53 PM,39.0,35.1,86,29.77,5.0,ESE,12.7,-,0.04,Rain,Light Rain,120,2013-02-10 20:53:00
4:53 PM,42.1,37.0,82,29.69,10.0,SE,21.9,32.2,0.02,Rain,Light Rain,130,2013-02-10 21:53:00
5:53 PM,41.0,34.0,76,29.68,10.0,SSE,17.3,24.2,0.00,,Overcast,150,2013-02-10 22:53:00
6:19 PM,42.8,35.6,76,29.63,10.0,SE,19.6,26.5,N/A,,Overcast,130,2013-02-10 23:19:00
6:53 PM,43.0,36.0,76,29.65,9.0,SSE,23.0,29.9,0.00,Rain,Light Rain,160,2013-02-10 23:53:00
7:53 PM,42.1,37.0,82,29.64,6.0,SSE,17.3,27.6,0.01,,Haze,150,2013-02-11 00:53:00
8:53 PM,42.1,39.0,89,29.62,10.0,South,15.0,25.3,0.03,,Overcast,170,2013-02-11 01:53:00
9:41 PM,42.8,39.2,87,29.59,10.0,South,15.0,-,N/A,,Overcast,170,2013-02-11 02:41:00
9:53 PM,43.0,39.9,89,29.60,10.0,South,16.1,-,N/A,,Overcast,170,2013-02-11 02:53:00
10:53 PM,43.0,39.0,86,29.57,9.0,SSE,12.7,-,N/A,,Overcast,160,2013-02-11 03:53:00
11:41 PM,44.6,39.2,81,29.54,8.0,South,10.4,-,N/A,,Overcast,170,2013-02-11 04:41:00
11:53 PM,44.1,39.9,85,29.55,9.0,South,11.5,-,N/A,,Overcast,170,2013-02-11 04:53:00